Regional Weather Roundup
Issued by NWS

Home | Current Version | Previous Version | Text Only | Print | Product List | Glossary On
Versions: 1 2 3 4 5 6 7 8 9 10 11 12 13 14 15 16 17 18 19 20 21 22 23 24 25 26 27 28
000
ASUS45 KREV 212210
RWRNV
NEVADA REGIONAL WEATHER ROUNDUP
NATIONAL WEATHER SERVICE RENO NV
300 PM PDT THU SEP 21 2017

NOTE: "FAIR" INDICATES FEW OR NO CLOUDS BELOW 12,000 FEET WITH NO
SIGNIFICANT WEATHER AND/OR OBSTRUCTIONS TO VISIBILITY.

NVZ001-003-004-212300-
WESTERN NEVADA

CITY           SKY/WX    TMP DP  RH WIND       PRES   REMARKS
RENO           LGT RAIN  44  37  76 W14       29.85R
CARSON CITY    PTSUNNY   45  37  76 N16       29.86R
MINDEN         FAIR      48  34  57 W3        29.83S
FALLON         PTSUNNY   51  38  60 W12       29.79F
LOVELOCK       CLOUDY    50  35  56 N18G26    29.80R
HAWTHORNE      MOSUNNY   52  43  71 NW22      29.77R
$$

NVZ002-CAZ072-073-212300-
NORTHERN AND CENTRAL SIERRA

CITY           SKY/WX    TMP DP  RH WIND       PRES   REMARKS
S. LAKE TAHOE  CLOUDY    38  35  89 SW9       29.86F
TRUCKEE        SNOW      32  32 100 CALM      29.90R VSB 1/2
SQUAW VLY 8000   N/A     32  28  86 W7          N/A
SUSANVILLE     PTSUNNY   57  21  24 NW5       29.82F
BLUE CANYON    FLURRIES  34  33  96 VRB6      29.91S
MAMMOTH LAKES  PTSUNNY   43  20  40 W13G32    29.84S
BRIDGEPORT     CLOUDY    38  27  64 W9G26     29.83R HAZE
$$

NVZ030-031-036-212300-
NORTHERN NEVADA

CITY           SKY/WX    TMP DP  RH WIND       PRES   REMARKS
ELKO           LGT RAIN  40  35  83 N7        29.79F
WINNEMUCCA     FAIR      50  37  61 NE20      29.78F
WENDOVER       LGT RAIN  44  39  82 W9        29.81R
$$

NVZ035-037-212300-
CENTRAL NEVADA

CITY           SKY/WX    TMP DP  RH WIND       PRES   REMARKS
ELY            LGT SNOW  33  33 100 CALM      29.84S FOG
EUREKA           N/A     39  32  76 SE14      29.78F
$$

NVZ013-014-212300-
SOUTH CENTRAL NEVADA

CITY           SKY/WX    TMP DP  RH WIND       PRES   REMARKS
TONOPAH        FAIR      42  38  85 S6        29.79S
$$

NVZ017-020-022-212300-
SOUTHERN NEVADA

CITY           SKY/WX    TMP DP  RH WIND       PRES   REMARKS
LAS VEGAS      FAIR      81  44  27 SW24G36   29.62F
N. LAS VEGAS   FAIR      82  42  24 SW18G30   29.61F
NELLIS AFB     FAIR      83  42  22 S32G43    29.59F
HENDERSON      FAIR      80  45  28 SW24G37   29.67F
MERCURY        FAIR      75  43  31 S28G45    29.65F
$$




USA.gov is the U.S. government's official web portal to all federal, state and local government web resources and services.